User: anonymous   Login
Location: Fort Wayne
(41.1310°N, 85.1290°W)
Time: 23:30:06
(UTC-05:00)
Language:

SL-08 RB Rocket - Orbit

View from above orbital plane
View from above orbital plane
View from above satellite
View from above satellite

Ground track
Ground track

The orbit data is extracted from the following two-line orbital elements,

1 26387U 00033D   17022.31173117  .00000060  00000-0  18811-4 0  9997
2 26387  97.9913  90.1924 0027828  81.4398 317.2351 14.68234458886471
Epoch (UTC): 22 January 2017 07:28:53
Eccentricity: 0.0027828
inclination: 97.9913°
perigee height: 647 km
apogee height: 686 km
right ascension of ascending node: 90.1924°
argument of perigee: 81.4398°
revolutions per day: 14.68234458
mean anomaly at epoch: 317.2351°
orbit number at epoch: 88647

The dashed part of the orbit path shows where the satellite is in the earth's shadow,  

DLR